Temperature
28 24 24 24 25 26 26 26 26 26 27 26 24 24 23 24 24 23 23 23 23 23 23 22 22 22 21 21 21 21 20 20 20 20 20 20 19 19 19 19 19 19 19 19
24 24 25 26 27 27 27 26 26 26 27 26 24 24 24 24 24 24 23 23 23 23 23 22 22 22 22 21 21 21 21 20 20 20 20 20 19 19 19 19 19 19 19 19
25 25 27 27 27 27 26 26 26 26 26 25 25 24 24 24 24 24 24 24 23 23 23 23 22 22 22 22 21 21 21 21 21 20 20 20 19 19 19 19 19 19 19 19
25 26 27 27 27 27 25 27 27 27 24 23 24 22 23 23 23 24 24 24 24 23 23 23 23 22 22 22 22 22 21 21 21 20 20 20 20 19 19 19 19 19 19 19
25 27 27 27 28 28 26 27 27 27 24 23 23 22 22 22 23 23 24 24 24 24 24 23 23 23 23 22 22 22 21 21 21 20 20 20 20 19 19 19 19 19 19 19
26 27 28 28 28 28 28 26 25 22 22 22 23 22 22 22 23 23 24 24 24 24 24 24 24 23 23 22 22 22 21 21 21 21 20 20 20 19 19 19 19 19 19 18
26 27 28 28 27 28 26 23 22 22 21 21 22 23 22 23 24 24 24 24 24 24 24 24 23 23 23 22 22 22 22 21 21 21 20 20 20 19 19 19 19 18 18 18
24 24 26 28 27 26 25 22 22 22 22 21 22 22 22 24 25 25 25 24 25 25 24 24 24 24 23 23 22 22 22 22 21 21 20 20 20 19 19 19 19 18 18 18
23 24 26 28 28 27 26 23 21 20 21 21 21 22 23 24 23 23 24 24 24 24 24 24 24 24 23 23 23 22 22 22 21 21 20 20 20 20 19 19 19 18 18 18
24 24 26 27 28 27 25 23 20 20 21 21 22 22 21 22 22 22 23 23 24 24 24 24 24 24 23 23 23 22 22 22 21 21 20 20 20 19 19 19 18 18 18 18
24 23 24 26 26 26 26 24 21 19 20 20 21 21 23 22 22 21 22 23 24 24 24 24 24 24 23 23 23 22 22 22 21 21 20 20 19 19 19 19 18 18 18 18
23 21 22 24 25 26 25 24 21 21 20 19 20 20 23 22 22 22 23 23 24 24 24 24 24 24 23 23 22 22 22 21 21 20 20 19 19 19 19 19 18 18 18 18
23 20 21 23 23 25 25 24 21 20 19 19 20 21 22 22 22 23 23 23 23 24 24 23 24 24 23 23 22 22 22 21 21 20 20 19 19 19 19 18 18 18 18 17
22 20 20 22 22 23 25 25 23 21 20 20 20 21 22 21 21 22 23 23 23 24 23 23 23 23 23 22 22 22 21 21 21 20 20 19 19 19 18 18 18 18 17 17
21 21 22 22 24 25 25 25 25 23 21 21 21 21 21 21 21 22 23 23 23 23 23 23 23 22 22 22 22 21 21 20 20 20 19 19 19 18 18 18 17 17 17 17
19 21 22 23 24 25 25 25 25 24 23 22 22 21 21 22 22 22 22 22 22 22 22 22 22 22 22 22 21 21 20 20 20 20 19 18 18 18 18 17 17 17 17 17
18 20 20 20 22 24 23 23 24 24 24 23 22 21 21 21 21 21 21 22 22 22 22 22 22 21 21 21 21 20 20 20 19 19 19 18 18 18 17 17 17 17 17 17
18 18 17 19 22 22 21 22 24 23 23 22 22 21 21 21 21 22 22 22 22 22 22 22 21 21 21 20 20 20 19 19 19 19 18 18 18 18 17 17 17 17 17 16
18 18 17 17 19 21 22 22 22 22 21 21 21 21 21 21 21 20 21 22 22 22 22 22 21 21 20 20 20 19 19 19 18 18 18 18 18 17 17 17 17 16 16 16
17 17 17 17 20 20 21 22 23 22 20 20 21 20 20 20 19 19 21 21 21 21 21 21 20 20 20 19 19 19 19 18 18 18 18 18 17 17 17 17 16 16 16 16
18 17 17 17 18 19 20 21 22 21 19 20 20 20 20 19 19 20 20 21 21 21 21 20 20 20 19 19 19 19 18 18 18 17 17 17 17 17 16 16 16 16 15 15
17 17 17 16 18 18 19 20 19 19 20 20 20 20 20 20 20 20 20 20 20 20 20 20 19 19 18 18 18 18 18 17 17 17 17 17 16 16 16 16 15 15 15 15
16 16 15 16 16 17 19 19 20 20 20 20 20 20 20 20 19 19 19 20 20 19 19 19 19 18 18 18 18 17 17 17 16 16 16 16 16 15 15 15 15 15 14 14
16 15 15 15 16 17 18 19 19 20 20 20 20 20 20 19 19 19 19 19 19 18 18 18 18 18 17 17 17 17 16 16 16 16 16 15 15 15 15 15 14 14 14 14
15 15 14 15 16 17 18 18 19 19 19 19 19 19 19 19 18 18 18 18 18 17 17 17 17 17 17 16 16 16 16 16 16 15 15 15 15 14 14 14 14 14 14 14
14 14 14 14 16 16 17 18 19 19 19 19 19 18 18 18 18 18 17 17 17 17 16 16 16 16 16 16 15 15 15 15 15 15 14 14 14 14 14 13 13 13 13 13
Wind_Speed
1 4 3 7 6 6 4 4 4 5 6 7 8 9 12 13 12 12 11 11 12 11 10 10 10 10 9 8 8 7 6 6 5 3 2 2 1 0 0 1 2 3 3 3
4 3 9 6 4 3 3 3 3 2 5 6 7 8 10 13 15 15 15 14 13 10 9 10 10 10 10 9 9 8 7 7 6 4 3 2 2 1 1 0 1 2 2 2
6 7 6 5 4 3 4 6 6 5 2 3 5 0 5 8 8 10 13 13 13 14 14 13 12 11 10 10 10 10 8 7 6 5 3 2 2 1 1 0 1 1 2 2
5 7 5 5 5 5 5 6 6 6 5 2 4 3 6 8 9 12 13 12 14 13 12 12 12 12 12 11 10 9 9 8 7 6 5 5 3 2 2 2 2 2 3 3
6 5 6 6 6 6 5 2 3 5 6 2 1 3 6 4 8 12 13 14 15 15 15 15 14 14 12 11 10 9 8 7 7 6 6 5 3 3 2 1 2 2 2 2
7 5 5 6 5 5 4 4 6 6 5 1 4 4 5 6 11 11 12 13 13 14 14 14 12 11 10 10 9 9 9 7 7 7 6 6 5 4 3 2 2 2 1 1
4 4 3 3 3 1 5 6 4 4 4 4 3 2 6 6 8 10 13 12 11 12 13 13 12 12 11 11 11 10 9 8 7 7 7 6 6 5 4 4 3 2 1 1
4 5 5 4 7 6 5 9 8 5 4 4 3 2 6 5 5 6 8 9 8 10 11 12 13 13 12 12 12 11 11 9 9 8 7 6 5 4 3 4 3 3 2 2
7 7 6 6 5 9 6 5 9 8 4 2 3 4 5 3 4 4 5 6 8 9 11 11 11 12 11 11 11 12 11 9 9 9 7 6 5 5 4 3 3 2 2 2
6 3 4 4 1 2 8 9 7 6 6 2 3 3 4 2 3 4 6 6 6 6 8 8 9 10 10 10 10 9 10 10 8 8 7 7 5 5 4 3 3 2 2 1
6 4 3 1 5 7 4 5 6 6 6 7 3 6 5 6 6 6 6 7 8 7 7 7 7 8 8 8 8 8 8 7 7 7 7 6 5 5 4 3 3 2 2 1
6 5 3 6 6 7 7 8 8 6 4 6 5 6 4 6 6 9 7 6 6 6 6 6 6 6 6 6 7 7 7 7 7 7 7 6 6 5 4 4 3 2 2 2
5 6 2 5 6 3 3 5 6 8 6 6 6 5 1 4 4 6 9 7 7 7 6 5 5 5 6 6 6 6 6 6 6 6 7 6 5 5 4 4 3 3 3 2
6 5 7 8 7 3 2 3 5 7 5 5 7 7 4 6 6 6 8 7 7 7 7 6 5 5 5 5 6 6 5 6 6 6 6 6 5 6 5 4 4 3 3 4
6 4 3 4 4 3 2 3 4 5 8 8 9 9 10 11 11 9 8 8 8 6 6 6 6 5 5 5 5 5 5 5 6 6 5 5 5 5 4 4 4 4 3 3
5 4 3 3 2 1 1 2 3 4 5 6 8 5 6 8 8 8 9 9 9 7 6 5 5 6 5 5 5 5 5 4 5 6 5 4 5 5 5 4 4 4 3 3
3 5 4 2 4 4 3 3 2 3 4 9 8 7 7 9 10 10 10 10 9 8 7 6 5 5 5 5 6 6 5 5 5 5 5 5 4 5 5 5 5 5 4 4
5 4 4 2 4 2 6 3 3 4 2 3 6 8 10 11 9 7 8 9 8 7 7 7 6 5 4 5 5 6 6 5 5 5 5 4 5 5 5 5 5 4 4 5
6 7 4 4 2 3 5 3 2 4 3 2 7 9 10 11 10 5 3 7 7 7 7 7 7 6 5 5 6 6 6 6 5 5 5 4 4 5 5 5 4 4 4 4
6 7 6 4 4 4 5 4 1 6 2 3 6 10 9 9 7 3 3 6 7 7 7 7 7 7 6 4 6 8 7 6 6 5 5 5 5 5 5 4 4 4 4 4
4 4 5 4 2 5 5 5 3 5 4 1 5 8 8 5 6 6 7 8 8 8 8 8 7 7 5 4 6 8 7 5 4 5 5 5 5 5 5 4 3 4 4 4
4 4 3 4 3 5 4 3 3 5 4 5 5 5 7 7 8 8 8 8 8 9 8 9 8 6 4 4 7 7 5 4 4 5 6 5 5 4 4 5 4 4 5 5
2 4 5 5 5 4 1 2 2 4 7 5 5 5 8 8 8 9 7 7 7 8 8 8 9 7 5 5 6 6 4 4 5 6 6 6 6 5 5 5 5 4 4 4
3 3 4 3 1 2 4 5 5 6 7 5 6 8 8 8 8 9 7 7 7 6 7 7 8 7 5 4 5 4 4 6 7 7 6 5 5 5 5 5 4 4 3 3
2 3 4 3 1 4 5 4 5 6 8 9 7 7 7 8 8 8 8 7 6 6 5 6 7 7 5 4 5 5 5 6 7 6 6 5 5 5 5 5 4 3 2 2
2 2 3 3 3 2 1 1 4 7 6 6 7 7 7 7 7 8 7 6 6 6 6 6 6 6 5 5 4 4 4 6 7 6 5 4 5 5 5 5 5 8 6 6
Wind_Direction
301 94 204 217 195 185 191 167 178 193 181 146 152 161 176 178 176 175 175 174 183 186 184 177 175 173 166 165 164 163 164 166 153 145 145 145 172 176 136 185 176 178 189 195
27 241 224 218 206 178 203 199 212 180 164 146 165 181 186 181 186 182 180 180 187 184 175 176 177 177 173 172 170 165 167 167 165 165 163 158 153 162 170 181 131 169 180 187
199 233 214 205 220 206 243 202 203 183 119 76 118 227 201 195 193 188 186 185 186 184 181 181 178 180 176 177 176 176 173 171 172 163 141 126 94 56 49 356 280 234 203 196
229 233 214 201 215 190 242 234 189 161 124 179 137 202 244 203 201 198 194 190 193 188 184 183 182 182 183 186 180 173 172 172 174 166 156 154 155 171 201 193 208 231 211 199
235 210 198 202 210 191 214 230 160 152 142 106 68 131 269 206 207 208 199 195 196 190 187 188 186 185 185 182 178 175 172 175 174 169 166 163 170 184 188 179 197 225 238 221
239 243 202 200 208 195 168 75 47 50 80 108 235 169 256 214 208 202 196 196 198 192 188 187 184 177 177 175 175 174 172 179 178 173 171 172 178 181 173 185 196 223 244 264
289 283 250 171 174 263 108 94 48 16 24 246 260 177 250 233 208 192 185 189 191 182 179 180 178 176 177 175 177 176 175 182 182 178 180 182 185 183 184 191 194 203 224 249
198 261 240 199 177 179 167 138 153 171 195 263 336 233 258 256 200 173 170 174 172 173 177 181 182 180 181 181 180 178 181 185 183 183 188 188 188 185 188 192 187 196 216 235
186 237 256 217 178 150 144 155 161 135 145 124 282 278 299 19 94 133 137 137 157 172 177 178 178 177 180 182 184 184 185 186 186 186 184 187 190 185 185 184 187 195 210 225
171 215 259 236 115 154 153 149 105 118 142 189 279 257 234 231 156 134 134 142 159 157 160 162 168 177 180 184 182 178 181 186 185 185 188 192 191 188 180 169 178 186 196 200
171 170 282 70 171 188 148 122 116 118 144 151 201 266 230 206 165 142 152 153 158 152 152 163 166 172 172 168 170 173 174 175 179 184 190 187 179 177 174 177 186 185 180 165
163 139 217 248 238 184 165 161 143 145 180 156 157 257 261 180 158 138 136 135 134 134 139 153 154 146 151 157 162 168 170 171 179 182 181 179 174 170 172 173 175 163 149 142
138 118 111 338 335 356 137 148 140 130 126 146 156 244 249 132 136 133 132 130 122 120 113 116 129 141 150 155 157 161 165 172 172 167 166 165 165 168 168 164 154 135 127 112
116 111 157 187 210 216 198 157 140 122 144 175 191 194 194 164 157 146 135 131 128 128 123 115 123 132 136 142 151 156 163 165 158 155 158 163 169 168 163 153 138 131 125 120
94 117 157 196 211 181 187 197 175 155 171 170 192 183 196 184 173 161 143 133 133 129 122 126 129 124 119 126 138 146 154 153 150 145 152 166 163 151 142 136 132 123 120 124
69 104 72 2 349 56 342 258 192 169 158 154 155 194 203 161 147 140 139 142 144 140 134 123 120 121 123 126 133 129 129 135 138 136 138 141 136 135 133 136 130 122 115 106
63 98 86 319 330 52 340 280 204 160 158 157 177 194 159 135 147 155 154 149 149 147 143 132 127 119 119 124 128 127 128 121 118 130 130 127 133 136 138 141 130 128 125 109
125 99 113 100 57 183 243 263 112 109 89 145 150 152 148 146 143 136 143 141 145 150 144 136 124 110 110 113 117 119 116 112 122 130 126 126 130 133 134 129 130 136 130 123
138 127 110 111 130 281 303 340 70 100 35 28 134 131 125 122 97 74 115 135 144 138 134 132 121 115 114 125 126 120 118 117 118 126 131 128 128 134 131 133 136 134 128 128
84 103 111 113 134 211 253 287 281 104 53 327 142 136 132 118 127 177 156 117 111 110 114 114 113 106 106 121 128 119 121 128 137 145 140 135 129 131 136 140 135 124 126 130
69 70 116 135 175 254 268 289 50 113 203 218 140 142 135 134 162 163 137 115 109 104 105 107 105 101 101 114 116 114 116 126 138 134 126 119 119 124 124 120 116 116 115 109
149 139 156 136 160 250 309 40 120 180 166 133 113 126 126 119 112 114 117 116 113 110 107 109 107 98 93 103 109 111 116 121 118 119 116 114 110 116 114 111 104 106 112 110
124 174 167 166 196 244 19 106 143 138 124 123 123 117 117 114 111 112 107 109 113 115 115 115 113 104 93 89 107 117 123 118 112 108 106 103 94 87 98 110 117 117 111 113
349 37 91 81 45 29 47 52 49 81 99 103 107 104 107 118 120 121 118 112 107 107 113 114 111 111 104 90 88 104 119 113 107 107 106 102 98 85 79 82 93 114 125 128
320 35 63 74 67 37 30 53 70 77 81 86 88 102 110 117 122 132 126 119 116 114 109 110 117 122 120 103 90 93 103 109 107 105 107 102 97 99 88 76 65 87 97 151
314 137 132 198 218 155 243 353 89 98 95 102 106 96 104 117 125 123 125 127 123 122 116 113 112 117 115 104 96 94 103 112 118 118 116 118 116 110 105 102 74 48 59 70
Height
1497 1505 1511 1508 1506 1508 1511 1517 1522 1519 1512 1517 1523 1526 1527 1528 1531 1532 1534 1536 1537 1539 1541 1542 1544 1545 1547 1548 1549 1550 1552 1553 1553 1554 1555 1555 1556 1556 1556 1556 1556 1556 1556 1556
1504 1508 1501 1499 1501 1505 1510 1517 1519 1516 1511 1516 1524 1525 1524 1525 1527 1528 1530 1533 1535 1537 1539 1541 1542 1544 1545 1547 1548 1549 1550 1551 1552 1553 1554 1555 1556 1556 1556 1556 1556 1556 1556 1556
1507 1502 1496 1499 1503 1508 1512 1515 1516 1518 1515 1517 1525 1533 1529 1526 1527 1529 1530 1530 1532 1534 1536 1538 1540 1542 1543 1545 1546 1547 1549 1550 1551 1552 1554 1554 1555 1555 1555 1555 1555 1555 1555 1555
1500 1495 1496 1499 1503 1505 1516 1505 1506 1512 1524 1535 1531 1551 1533 1526 1527 1527 1527 1528 1529 1531 1533 1535 1537 1539 1541 1543 1545 1546 1548 1549 1550 1551 1552 1552 1553 1553 1554 1554 1554 1554 1554 1553
1499 1492 1495 1499 1498 1499 1505 1500 1504 1509 1522 1533 1534 1546 1539 1527 1529 1525 1523 1524 1525 1527 1530 1532 1534 1537 1539 1542 1543 1545 1547 1548 1549 1550 1551 1551 1552 1552 1553 1553 1552 1552 1552 1552
1493 1488 1489 1491 1491 1493 1496 1503 1511 1519 1530 1548 1539 1545 1542 1529 1522 1519 1519 1520 1522 1524 1527 1530 1532 1535 1538 1540 1542 1544 1545 1546 1547 1548 1549 1550 1550 1551 1551 1551 1550 1550 1550 1550
1496 1490 1486 1487 1494 1495 1499 1521 1543 1547 1556 1554 1536 1539 1537 1517 1512 1512 1514 1517 1519 1522 1525 1528 1530 1533 1536 1538 1540 1542 1543 1544 1546 1547 1547 1548 1549 1549 1549 1549 1549 1549 1549 1549
1508 1508 1489 1485 1490 1499 1502 1516 1543 1556 1560 1553 1538 1541 1527 1510 1508 1509 1511 1513 1517 1520 1523 1525 1528 1531 1534 1536 1538 1540 1541 1542 1544 1545 1546 1547 1547 1548 1548 1548 1548 1548 1547 1548
1506 1506 1484 1481 1481 1488 1501 1513 1516 1537 1544 1551 1546 1534 1519 1509 1508 1509 1511 1513 1515 1518 1521 1523 1526 1529 1532 1534 1536 1538 1539 1540 1542 1543 1544 1545 1545 1546 1546 1546 1547 1547 1547 1547
1490 1500 1488 1481 1481 1484 1490 1501 1521 1536 1554 1558 1547 1539 1533 1518 1514 1511 1511 1513 1515 1517 1519 1522 1525 1527 1530 1532 1534 1536 1537 1538 1540 1541 1542 1543 1544 1544 1544 1545 1545 1545 1545 1545
1484 1498 1495 1487 1490 1494 1494 1503 1516 1531 1537 1554 1557 1545 1514 1512 1510 1510 1512 1513 1514 1516 1519 1521 1524 1526 1528 1531 1533 1534 1535 1537 1538 1539 1540 1541 1542 1542 1543 1543 1544 1544 1544 1544
1481 1496 1505 1494 1481 1478 1486 1496 1511 1529 1538 1541 1547 1541 1506 1507 1507 1508 1511 1513 1515 1516 1519 1521 1523 1525 1527 1529 1531 1532 1533 1535 1536 1537 1538 1539 1540 1541 1541 1541 1542 1542 1542 1543
1479 1496 1512 1509 1500 1488 1488 1493 1501 1513 1528 1539 1545 1535 1506 1506 1507 1507 1509 1513 1515 1517 1519 1521 1522 1524 1526 1528 1529 1531 1532 1533 1534 1535 1536 1537 1538 1538 1539 1540 1540 1540 1541 1541
1473 1493 1506 1514 1509 1496 1493 1492 1496 1509 1527 1531 1529 1522 1511 1508 1508 1509 1510 1513 1515 1516 1518 1520 1522 1523 1525 1527 1528 1529 1530 1531 1532 1533 1534 1535 1536 1536 1537 1538 1539 1539 1540 1540
1474 1491 1491 1492 1488 1487 1489 1491 1492 1500 1508 1517 1516 1513 1508 1504 1505 1507 1509 1512 1515 1516 1518 1520 1522 1523 1524 1525 1527 1528 1529 1530 1531 1532 1533 1533 1534 1535 1536 1537 1538 1538 1539 1539
1478 1489 1490 1492 1486 1485 1489 1488 1489 1492 1496 1502 1505 1508 1500 1501 1505 1507 1509 1512 1514 1516 1518 1520 1521 1522 1523 1524 1525 1527 1528 1529 1530 1530 1531 1532 1533 1534 1535 1536 1537 1538 1538 1539
1485 1490 1500 1505 1493 1490 1502 1493 1489 1490 1490 1495 1504 1503 1499 1502 1504 1507 1509 1511 1513 1515 1517 1519 1521 1522 1523 1524 1525 1526 1527 1528 1529 1530 1530 1532 1532 1533 1534 1535 1536 1537 1538 1538
1486 1494 1504 1507 1502 1514 1503 1486 1484 1487 1490 1490 1492 1495 1496 1499 1503 1506 1508 1510 1513 1515 1517 1519 1520 1522 1523 1524 1524 1526 1527 1527 1528 1529 1530 1531 1532 1532 1533 1535 1536 1536 1537 1537
1478 1490 1504 1513 1514 1508 1495 1486 1487 1491 1497 1492 1493 1494 1497 1500 1504 1509 1509 1510 1512 1514 1516 1518 1519 1522 1522 1523 1524 1525 1526 1527 1527 1528 1529 1530 1531 1532 1533 1534 1534 1535 1536 1536
1479 1485 1501 1510 1513 1516 1501 1486 1483 1488 1502 1495 1493 1494 1497 1499 1508 1511 1510 1510 1512 1514 1516 1517 1519 1521 1521 1522 1523 1524 1525 1525 1526 1527 1528 1529 1530 1530 1531 1533 1533 1534 1535 1536
1491 1495 1502 1508 1512 1506 1491 1485 1484 1502 1505 1496 1494 1494 1496 1499 1503 1506 1508 1509 1511 1513 1515 1516 1518 1518 1519 1522 1522 1523 1524 1526 1527 1528 1528 1529 1529 1530 1530 1532 1533 1533 1534 1535
1494 1500 1504 1508 1513 1510 1489 1487 1491 1495 1492 1493 1495 1496 1497 1499 1502 1504 1507 1509 1511 1513 1515 1516 1517 1518 1520 1520 1522 1523 1524 1526 1527 1527 1527 1528 1529 1530 1530 1531 1532 1533 1534 1534
1491 1493 1496 1500 1503 1493 1489 1489 1490 1490 1492 1494 1496 1498 1498 1500 1502 1505 1507 1509 1511 1512 1514 1516 1517 1518 1520 1521 1522 1523 1524 1525 1526 1526 1527 1527 1528 1529 1530 1531 1531 1532 1533 1533
1490 1487 1491 1495 1495 1492 1491 1491 1491 1491 1492 1494 1496 1497 1499 1501 1503 1505 1507 1509 1511 1512 1514 1515 1516 1518 1519 1520 1521 1522 1523 1524 1525 1525 1526 1527 1528 1529 1529 1530 1531 1532 1532 1533
1491 1490 1493 1496 1495 1493 1493 1494 1495 1494 1494 1496 1497 1499 1501 1502 1504 1506 1507 1509 1511 1513 1514 1515 1516 1518 1519 1520 1521 1522 1523 1524 1524 1525 1526 1527 1528 1528 1529 1530 1531 1531 1532 1532
1491 1493 1496 1498 1495 1496 1496 1496 1496 1496 1496 1497 1499 1501 1503 1504 1505 1505 1507 1509 1511 1512 1514 1515 1516 1517 1518 1520 1521 1522 1523 1523 1524 1524 1525 1526 1527 1528 1529 1529 1530 1531 1532 1532